TOM1ED EGGP-EGNS

Flight info

Callsign TOM1ED
Flight time 0h 31m
Altitude 12000
Route WAL M146 LUSOD DCT IOM
Aircraft B738/M-SDE2E3FGHIRWXY/LB1

Departure

Time 2026-04-22 02:29
Airport Liverpool John Lennon Airport (EGGP)

Arrival

Time 2026-04-22 03:00
Airport Isle of Man Airport (EGNS)
Time Latitude Longitude Altitude Speed Heading
2026-04-22 02:07 53.33658 -2.85519 93 ft 0 kts 355°
2026-04-22 02:21 53.33652 -2.85518 93 ft 3 kts 355°
2026-04-22 02:21 53.33633 -2.85516 92 ft 3 kts 338°
2026-04-22 02:22 53.33620 -2.85495 94 ft 3 kts 272°
2026-04-22 02:22 53.33620 -2.85491 94 ft 0 kts 270°
2026-04-22 02:24 53.33619 -2.85494 93 ft 1 kts 258°
2026-04-22 02:25 53.33617 -2.85506 93 ft 1 kts 255°
2026-04-22 02:25 53.33616 -2.85513 93 ft 0 kts 258°
2026-04-22 02:25 53.33610 -2.85568 95 ft 11 kts 261°
2026-04-22 02:26 53.33598 -2.85753 96 ft 20 kts 265°
2026-04-22 02:26 53.33589 -2.85992 93 ft 0 kts 272°
2026-04-22 02:26 53.33590 -2.86030 93 ft 10 kts 269°
2026-04-22 02:27 53.33581 -2.86208 94 ft 17 kts 262°
2026-04-22 02:27 53.33500 -2.86315 93 ft 16 kts 182°
2026-04-22 02:27 53.33425 -2.86430 93 ft 16 kts 184°
2026-04-22 02:27 53.33319 -2.86413 94 ft 15 kts 164°
2026-04-22 02:28 53.33304 -2.86399 95 ft 3 kts 134°
2026-04-22 02:28 53.33305 -2.86238 94 ft 42 kts 85°
2026-04-22 02:28 53.33350 -2.85255 96 ft 125 kts 85°
2026-04-22 02:28 53.33430 -2.83425 243 ft 181 kts 83°
2026-04-22 02:29 53.33562 -2.81281 961 ft 194 kts 83°
2026-04-22 02:29 53.33778 -2.78902 1272 ft 219 kts 75°
2026-04-22 02:29 53.34692 -2.76805 1788 ft 240 kts 38°
2026-04-22 02:29 53.36374 -2.76085 2296 ft 263 kts
2026-04-22 02:30 53.38105 -2.77232 2794 ft 280 kts 323°
2026-04-22 02:30 53.39247 -2.79922 3146 ft 293 kts 290°
2026-04-22 02:30 53.39378 -2.83216 3521 ft 280 kts 255°
2026-04-22 02:30 53.38939 -2.86384 4087 ft 285 kts 256°
2026-04-22 02:31 53.38645 -2.89744 4547 ft 292 kts 262°
2026-04-22 02:31 53.38521 -2.93132 4444 ft 296 kts 266°
2026-04-22 02:31 53.38530 -2.96578 4419 ft 294 kts 269°
2026-04-22 02:31 53.38625 -2.99986 4400 ft 291 kts 271°
2026-04-22 02:32 53.38759 -3.03351 4401 ft 287 kts 272°
2026-04-22 02:32 53.38907 -3.06672 4404 ft 285 kts 272°
2026-04-22 02:32 53.39058 -3.10010 4416 ft 290 kts 272°
2026-04-22 02:32 53.39456 -3.13349 4282 ft 297 kts 298°
2026-04-22 02:33 53.40661 -3.16043 4533 ft 287 kts 315°
2026-04-22 02:33 53.42056 -3.18457 4742 ft 290 kts 317°
2026-04-22 02:33 53.43492 -3.20857 4964 ft 292 kts 318°
2026-04-22 02:33 53.44914 -3.23237 5160 ft 292 kts 317°
2026-04-22 02:34 53.46349 -3.25656 5362 ft 292 kts 317°
2026-04-22 02:34 53.47782 -3.28087 5564 ft 292 kts 317°
2026-04-22 02:34 53.49208 -3.30520 5770 ft 292 kts 317°
2026-04-22 02:34 53.50635 -3.32963 5975 ft 292 kts 316°
2026-04-22 02:35 53.52062 -3.35411 6185 ft 293 kts 316°
2026-04-22 02:35 53.53484 -3.37855 6396 ft 293 kts 316°
2026-04-22 02:35 53.54892 -3.40279 6607 ft 293 kts 316°
2026-04-22 02:35 53.56321 -3.42742 6819 ft 294 kts 316°
2026-04-22 02:36 53.57747 -3.45221 7007 ft 295 kts 314°
2026-04-22 02:36 53.59026 -3.47939 7213 ft 297 kts 307°
2026-04-22 02:36 53.60207 -3.50802 7411 ft 297 kts 306°
2026-04-22 02:36 53.61385 -3.53676 7611 ft 298 kts 306°
2026-04-22 02:37 53.62576 -3.56537 7809 ft 298 kts 306°
2026-04-22 02:37 53.63778 -3.59395 8012 ft 299 kts 307°
2026-04-22 02:37 53.64969 -3.62219 8215 ft 300 kts 307°
2026-04-22 02:37 53.66190 -3.65131 8431 ft 301 kts 306°
2026-04-22 02:38 53.67395 -3.68015 8640 ft 301 kts 306°
2026-04-22 02:38 53.68602 -3.70911 8834 ft 302 kts 306°
2026-04-22 02:38 53.69816 -3.73825 9050 ft 304 kts 306°
2026-04-22 02:38 53.71016 -3.76710 9243 ft 305 kts 306°
2026-04-22 02:39 53.72240 -3.79653 9463 ft 307 kts 306°
2026-04-22 02:39 53.73471 -3.82618 9686 ft 308 kts 306°
2026-04-22 02:39 53.74700 -3.85583 9898 ft 309 kts 306°
2026-04-22 02:39 53.75932 -3.88557 10111 ft 310 kts 306°
2026-04-22 02:40 53.77170 -3.91548 10322 ft 311 kts 306°
2026-04-22 02:40 53.78413 -3.94554 10515 ft 312 kts 306°
2026-04-22 02:40 53.79656 -3.97565 10727 ft 312 kts 306°
2026-04-22 02:40 53.80889 -4.00556 10911 ft 313 kts 306°
2026-04-22 02:41 53.82136 -4.03586 11105 ft 314 kts 306°
2026-04-22 02:41 53.83386 -4.06626 11316 ft 314 kts 306°
2026-04-22 02:41 53.84634 -4.09661 11513 ft 314 kts 306°
2026-04-22 02:41 53.85882 -4.12701 11710 ft 313 kts 305°
2026-04-22 02:42 53.87108 -4.15693 11912 ft 313 kts 305°
2026-04-22 02:42 53.88352 -4.18721 12119 ft 313 kts 306°
2026-04-22 02:42 53.89612 -4.21774 12320 ft 320 kts 306°
2026-04-22 02:42 53.90886 -4.24842 12399 ft 316 kts 306°
2026-04-22 02:43 53.92160 -4.27926 12404 ft 320 kts 306°
2026-04-22 02:43 53.93431 -4.31001 12413 ft 317 kts 306°
2026-04-22 02:43 53.94608 -4.34151 12419 ft 315 kts 298°
2026-04-22 02:43 53.95601 -4.37462 12420 ft 314 kts 296°
2026-04-22 02:44 53.96543 -4.40804 12396 ft 314 kts 296°
2026-04-22 02:44 53.97498 -4.44194 12295 ft 321 kts 295°
2026-04-22 02:44 53.98390 -4.47673 12056 ft 321 kts 284°
2026-04-22 02:44 53.98570 -4.51414 11851 ft 318 kts 259°
2026-04-22 02:45 53.97939 -4.54951 11677 ft 311 kts 244°
2026-04-22 02:45 53.97079 -4.58315 11478 ft 309 kts 243°
2026-04-22 02:45 53.96209 -4.61585 11264 ft 307 kts 242°
2026-04-22 02:45 53.95328 -4.64879 11070 ft 305 kts 242°
2026-04-22 02:46 53.94450 -4.68144 10871 ft 303 kts 242°
2026-04-22 02:46 53.93570 -4.71396 10667 ft 302 kts 242°
2026-04-22 02:46 53.92697 -4.74633 10479 ft 301 kts 242°
2026-04-22 02:46 53.91824 -4.77881 10281 ft 303 kts 242°
2026-04-22 02:47 53.90768 -4.80945 10071 ft 299 kts 229°
2026-04-22 02:47 53.89491 -4.83685 9824 ft 300 kts 226°
2026-04-22 02:47 53.88148 -4.86445 9267 ft 304 kts 226°
2026-04-22 02:47 53.86800 -4.89211 8745 ft 304 kts 225°
2026-04-22 02:48 53.85579 -4.92156 8213 ft 310 kts 242°
2026-04-22 02:48 53.85089 -4.95724 7709 ft 316 kts 268°
2026-04-22 02:48 53.85503 -4.99367 7230 ft 316 kts 292°
2026-04-22 02:48 53.86461 -5.02705 6775 ft 312 kts 298°
2026-04-22 02:49 53.87476 -5.05893 6510 ft 302 kts 298°
2026-04-22 02:49 53.88516 -5.08910 6212 ft 293 kts 309°
2026-04-22 02:49 53.90024 -5.11078 5894 ft 279 kts 339°
2026-04-22 02:49 53.91838 -5.11820 5635 ft 261 kts
2026-04-22 02:50 53.93631 -5.12007 5394 ft 255 kts
2026-04-22 02:50 53.95379 -5.12243 5129 ft 249 kts
2026-04-22 02:50 53.97086 -5.12486 4854 ft 243 kts
2026-04-22 02:50 53.98716 -5.12296 4541 ft 227 kts 26°
2026-04-22 02:51 54.00046 -5.11138 4314 ft 212 kts 41°
2026-04-22 02:51 54.01241 -5.09732 4045 ft 206 kts 43°
2026-04-22 02:51 54.02389 -5.08347 3811 ft 198 kts 44°
2026-04-22 02:51 54.03258 -5.06731 3535 ft 174 kts 75°
2026-04-22 02:52 54.03584 -5.04896 3454 ft 153 kts 79°
2026-04-22 02:52 54.03881 -5.03250 3402 ft 140 kts 80°
2026-04-22 02:52 54.04176 -5.01667 3425 ft 139 kts 79°
2026-04-22 02:52 54.04470 -5.00178 3475 ft 126 kts 79°
2026-04-22 02:53 54.04776 -4.98825 3420 ft 119 kts 76°
2026-04-22 02:53 54.04980 -4.97957 3432 ft 120 kts 77°
2026-04-22 02:53 54.05224 -4.96618 3421 ft 117 kts 83°
2026-04-22 02:53 54.05458 -4.94819 3251 ft 116 kts 85°
2026-04-22 02:54 54.05559 -4.93910 3164 ft 116 kts 86°
2026-04-22 02:54 54.05696 -4.92565 3035 ft 117 kts 87°
2026-04-22 02:54 54.05825 -4.91211 2903 ft 116 kts 88°
2026-04-22 02:54 54.05980 -4.89868 2764 ft 117 kts 79°
2026-04-22 02:55 54.06112 -4.88539 2638 ft 112 kts 91°
2026-04-22 02:55 54.06194 -4.87207 2511 ft 113 kts 89°
2026-04-22 02:55 54.06295 -4.85879 2448 ft 114 kts 88°
2026-04-22 02:55 54.06404 -4.84552 2430 ft 112 kts 88°
2026-04-22 02:56 54.06514 -4.83235 2429 ft 111 kts 88°
2026-04-22 02:56 54.06620 -4.81994 2407 ft 102 kts 88°
2026-04-22 02:56 54.06720 -4.80806 2426 ft 105 kts 88°
2026-04-22 02:56 54.06824 -4.79582 2420 ft 103 kts 88°
2026-04-22 02:57 54.06927 -4.78360 2442 ft 109 kts 88°
2026-04-22 02:57 54.07041 -4.77007 2258 ft 115 kts 87°
2026-04-22 02:57 54.07125 -4.75724 2082 ft 111 kts 94°
2026-04-22 02:57 54.07106 -4.74404 1752 ft 109 kts 90°
2026-04-22 02:58 54.07115 -4.73158 1545 ft 106 kts 90°
2026-04-22 02:58 54.07130 -4.71863 1182 ft 109 kts 86°
2026-04-22 02:58 54.07266 -4.70632 1090 ft 109 kts 75°
2026-04-22 02:58 54.07454 -4.69371 946 ft 109 kts 79°
2026-04-22 02:59 54.07607 -4.68095 751 ft 110 kts 77°
2026-04-22 02:59 54.07781 -4.66783 531 ft 116 kts 78°
2026-04-22 02:59 54.07944 -4.65455 350 ft 111 kts 76°
2026-04-22 02:59 54.08098 -4.64201 138 ft 105 kts 76°
2026-04-22 03:00 54.08251 -4.63008 40 ft 99 kts 76°
2026-04-22 03:00 54.08377 -4.62007 29 ft 53 kts 78°
2026-04-22 03:00 54.08428 -4.61601 28 ft 33 kts 78°
2026-04-22 03:00 54.08458 -4.61447 28 ft 1 kts 42°
2026-04-22 03:01 54.08529 -4.61484 25 ft 19 kts 292°
2026-04-22 03:01 54.08543 -4.61702 27 ft 18 kts 274°
2026-04-22 03:01 54.08551 -4.61895 30 ft 0 kts 268°
2026-04-22 03:02 54.08561 -4.61964 33 ft 1 kts 317°
2026-04-22 03:02 54.08586 -4.61977 35 ft 12 kts 353°
2026-04-22 03:02 54.08612 -4.61984 37 ft 3 kts 332°
2026-04-22 03:02 54.08625 -4.62023 38 ft 0 kts 280°